Regional Weather Roundup
Issued by NWS

Home | Current Version | Previous Version | Graphics & Text | Print | Product List | Glossary On
Versions: 1 2 3 4 5 6 7 8 9 10 11 12 13 14 15 16 17 18 19 20 21 22 23 24 25 26 27
000
ASUS43 KDMX 181407
RWRIA

WEATHER ROUNDUP FOR IOWA
NATIONAL WEATHER SERVICE DES MOINES IA
900 AM CDT FRI APR 18 2014

NOTE: "FAIR" INDICATES FEW OR NO CLOUDS BELOW 12,000 FEET WITH NO
SIGNIFICANT WEATHER AND/OR OBSTRUCTIONS TO VISIBILITY.

* - THESE STATIONS ARE NOT NWS STATIONS...THUS NOT UNDER NWS
QUALITY CONTROL.  THEY ALSO DO NOT REPORT WEATHER SUCH
AS PRECIPITATION OR FOG.

IAZ001>003-012>014-020>022-031>034-043>046-181500-
   NORTHWEST IOWA

CITY           SKY/WX    TMP DP  RH WIND       PRES   REMARKS
CARROLL *      SUNNY     39  32  75 SE16      30.32R WCI  30
CHEROKEE *     MOSUNNY   37  34  87 SE10      30.29S WCI  30
DENISON *      SUNNY     43  34  70 SE9       30.28F
LE MARS *      MOSUNNY   39  32  75 SE14G21   30.25F WCI  31
ORANGE CITY *  SUNNY     41  32  70 SE9G16    30.25F
SHELDON *      MOSUNNY   37  32  81 SE15G21   30.26S WCI  28
SIOUX CITY     MOSUNNY   40  32  73 SE13      30.25F WCI  32
SPENCER        MOSUNNY   38  32  79 SE15      30.29F WCI  29
STORM LAKE *   SUNNY     37  34  87 SE14      30.30R WCI  29
$$

IAZ055>058-069>071-079>083-090>094-181500-
   SOUTHWEST IOWA

CITY           SKY/WX    TMP DP  RH WIND       PRES   REMARKS
ATLANTIC *     SUNNY     43  34  70 SE5       30.31S
AUDUBON *      SUNNY     43  34  70 SE6       30.32S
CLARINDA *     SUNNY     39  34  81 CALM      30.33S
COUNCIL BLFS * SUNNY     41  34  75 E8        30.27F
CRESTON *      SUNNY     43  36  75 SE7       30.32S
HARLAN  *      SUNNY     41  34  75 SE9       30.33F
LAMONI         SUNNY     42  34  73 SE7       30.33S
RED OAK *      SUNNY     41  34  75 E3        30.31S
SHENANDOAH *   SUNNY     45  37  76 VRB3      30.32R
$$

IAZ047>049-059>061-072>074-084-181500-
   CENTRAL IOWA

CITY           SKY/WX    TMP DP  RH WIND       PRES   REMARKS
AMES           SUNNY     37  31  78 E9        30.35S HAZE    WCI  30
ANKENY *       SUNNY     39  34  81 SE9       30.36S WCI  33
CHARITON *     SUNNY     41  36  81 SE9       30.35F
DES MOINES     MOSUNNY   40  32  73 E10       30.36R WCI  33
GRINNELL*      SUNNY     37  32  81 E7        30.36S WCI  32
KNOXVILLE *    SUNNY     39  32  75 E7        30.36S WCI  34
MARSHALLTOWN   SUNNY     37  32  82 E10       30.34S WCI  30
NEWTON *       SUNNY     37  32  81 SE8       30.37R WCI  31
PELLA *        SUNNY     41  32  70 E7        30.38R
PERRY *          N/A     39  32  75 E10       30.34S WCI  32
$$

IAZ004>006-015-016-023>025-035-036-181500-
   NORTH CENTRAL IOWA

CITY           SKY/WX    TMP DP  RH WIND       PRES   REMARKS
ALGONA *       SUNNY     37  32  81 SE9       30.33S WCI  31
CLARION *      SUNNY     37  32  81 SE9       30.35R WCI  31
ESTHERVILLE    SUNNY     35  33  92 SE15      30.30F FOG     WCI  25
FORT DODGE *   SUNNY     37  32  81 SE9       30.34F WCI  31
MASON CITY     CLOUDY    35  30  82 E9        30.36S WCI  28
FOREST CITY *  SUNNY     36  32  87 E9        30.34S WCI  29
IOWA FALLS *     N/A     37  32  81 E8        30.36R WCI  31
$$

IAZ007>011-017>019-026>030-037>042-050>054-066-181500-
   NORTHEAST IOWA

CITY           SKY/WX    TMP DP  RH WIND       PRES   REMARKS
CEDAR RAPIDS   SUNNY     39  31  72 E9        30.35S WCI  33
CHARLES CITY * PTSUNNY   37  30  75 E9        30.37R WCI  31
CLINTON *      SUNNY     41  34  75 NE9       30.40R
DECORAH *      MOSUNNY   36  30  80 E8        30.35F WCI  29
DUBUQUE        SUNNY     38  32  79 N7        30.36S WCI  33
MONTICELLO *   SUNNY     39  34  81 NE7       30.37S WCI  34
OELWEIN *      SUNNY    N/A N/A N/A E8        30.37S
WATERLOO       MOSUNNY   37  31  78 E8        30.36S WCI  31
$$

IAZ064-065-067-068-078-181500-
   EAST CENTRAL IOWA

CITY           SKY/WX    TMP DP  RH WIND       PRES   REMARKS
DAVENPORT      SUNNY     41  34  76 NE8       30.38R
IOWA CITY      SUNNY     41  34  76 E5        30.38R
MT. PLEASANT * SUNNY     43  36  75 E5        30.36S
MUSCATINE *    SUNNY     41  36  81 E6        30.37S HAZE
QUAD CITIES    SUNNY     43  34  70 NE6       30.36R
$$

IAZ062-063-075>077-085>089-095>099-181500-
   SOUTHEAST IOWA

CITY           SKY/WX    TMP DP  RH WIND       PRES   REMARKS
BURLINGTON     SUNNY     44  37  76 NE5       30.35R
FAIRFIELD *    SUNNY     41  34  75 CALM      30.36S
FORT MADISON * SUNNY     45  39  81 NE5       30.35S
KEOKUK *       SUNNY     46  37  71 E5        30.34S
OSKALOOSA *      N/A     39  34  81 CALM      30.37R
CENTERVILLE *  SUNNY     43  36  75 E6        30.36S
OTTUMWA        SUNNY     39  33  79 E3        30.36R
WASHINGTON *   SUNNY     41  36  81 VRB5      30.36S
$$

ABBREVIATIONS USED IN REMARKS
   TC - TEMPERATURES IN CELSIUS
  WCI - WIND CHILL INDEX
   HX - HEAT INDEX
  VSB - VISIBILITY
$$




USA.gov is the U.S. government's official web portal to all federal, state and local government web resources and services.